星链-5532 (STARLINK-5532 )

导读 | 豆包AI

STARLINK-5532是美国太空探索技术公司(SpaceX)星链互联网卫星星座中的一颗卫星,于2023年3月3日发射。星链计划旨在构建全球卫星互联网,为全球提供高速互联网服务,这颗卫星加入星座后,进一步拓展了星链的网络覆盖能力与服务规模。

基本信息
目录编号:
55760
目录名称:
STARLINK-5532
国际标识:
2023-028V
轨道中心:
EARTH
卫星名称:
星链-5532
卫星全名:
星链-5532 (STARLINK-5532 )
卫星状态:
在轨 (已飞行1154 天)
发射日期:
2023-03-03 UTC
国别 :
美国 (US)
星等 :
--
轨道信息
数据来源 国际轨道数据 AOE轨道数据
星历时间 2026-04-30T08:23:30+0800
13小时前
查看轨道信息
2026-04-23T23:00:00+0800
6天前
查看轨道信息
半长轴 6950.235km 6950.191km
偏心率 0.0003212 0.0004789
轨道倾角 69.999° 70.000°
近地点辐角 271.134° 278.710°
升交点赤经 114.834° 130.948°
平近点角 88.946° 176.461°
近地点 569.865km 568.725km
远地点 574.331km 575.383km
周期 96.108分钟 96.107分钟
每日圈数 14.983166 14.983308
详细信息
固有亮度:
5
最大亮度:
2.5
卫星平台:
Starlink v1.5
覆盖范围:
全球
运营商:
太空探索技术公司
运营商所在国:
美国
制造商(研发单位):
太空探索技术公司
制造商所在国:
美国
使用方式:
暂无
卫星简介
星链(Starlink)计划是由太空探索技术公司(SpaceX)提出的一个巨型低轨卫星互联网星座项目,计划在2019年至2024年间在太空搭建由约1.2万颗卫星组成的“星链”网络,其中1584颗将部署在地球上空550千米处的近地轨道,并从2020年开始工作。该卫星仍在工作。
2D轨道图
3D轨道图
轨道高度分析图
轨道倾角分析图
轨道综合分析图
查看轨道综合分析图